Regional Weather Roundup
Issued by NWS

Home | Current Version | Previous Version | Text Only | Print | Product List | Glossary On
Versions: 1 2 3 4 5 6 7 8 9 10 11 12 13 14 15 16 17 18 19 20 21 22 23 24 25 26 27 28 29 30 31 32 33 34 35 36 37 38 39 40 41 42 43 44 45 46 47 48 49 50
000
ASUS45 KBOU 221107
RWRCO

WEATHER ROUNDUP FOR COLORADO
NATIONAL WEATHER SERVICE DENVER/BOULDER CO
400 AM MST MON DEC 22 2014

NOTE: "FAIR" INDICATES FEW OR NO CLOUDS BELOW 12000 FEET WITH NO
SIGNIFICANT WEATHER AND/OR OBSTRUCTIONS TO VISIBILITY.

COZ001>005-013-030-031-221200-
...NORTHWEST COLORADO...

CITY           SKY/WX    TMP DP  RH WIND       PRES   REMARKS
CRAIG          MOCLDY    33  26  75 W10       29.86S WCI  25
HAYDEN         MOCLDY    30  21  69 NW14G23   29.83F WCI  20
MEEKER         CLOUDY    36  26  67 W3        29.87S
MOUNT WERNER   NOT AVBL
STEAMBOAT SPGS CLOUDY    29  22  74 W10       29.82S WCI  20
WALDEN         CLOUDY    19  12  73 NW7       29.77S WCI  10
$$

COZ006>008-011-221200-
...WEST CENTRAL VALLEYS...

CITY           SKY/WX    TMP DP  RH WIND       PRES   REMARKS
GRAND JUNCTION CLOUDY    32  31  96 E3        29.89S
MONTROSE       CLOUDY    32  30  92 SE6       29.91S WCI  26
EAGLE          CLOUDY    36  27  69 NW8       29.85S
RIFLE          CLOUDY    35  32  88 W5        29.88R WCI  31
DELTA          CLOUDY    35  33  93 E3        29.88F
NUCLA          CLOUDY    36  32  87 E3        29.95F
$$

COZ017>023-064>068-221200-
...SOUTHWEST COLORADO...

CITY           SKY/WX    TMP DP  RH WIND       PRES   REMARKS
DURANGO        CLOUDY    40  30  67 W21G31    29.86S
CORTEZ         MOCLDY    34  31  88 CALM      29.95F
PAGOSA SPRINGS FLURRIES  31  31 100 CALM      29.87S
TELLURIDE      CLOUDY    32  30  93 W22G29    29.94F WCI  19
WOLF CREEK PAS LGT SNOW  19  19 100 MISG      29.89S VSB 3/4
$$

COZ009-010-012-014-032>034-037-058>063-221200-
...CENTRAL COLORADO...

CITY           SKY/WX    TMP DP  RH WIND       PRES   REMARKS
ASPEN          FLURRIES  30  25  81 N15G23    29.81S WCI  19
BUENA VISTA    FLURRIES  31  24  75 NW7       29.74R WCI  24
COPPER MTN     CLOUDY    16  10  79 MISG      29.72S
BERTHOUD PASS  HVY SNOW   9   3  78 MISG      29.59F VSB<1/4
COTTONWOOD PAS LGT SNOW  30  21  69 N3G23     29.73S
GUNNISON       CLOUDY    32  28  86 NE5       29.81F WCI  27
KREMMLING      CLOUDY    32  18  55 NW15      29.81F WCI  22
LEADVILLE      LGT SNOW  21  17  84 NW14G23   29.73F VSB 1   WCI   8
SALIDA         CLOUDY    34  30  86 W13       29.80F WCI  25
SUNLIGHT       CLOUDY   N/A N/A N/A MISG      29.86F
WILKERSON PASS MOCLDY    16  14  93 NW15G30   29.72S WCI   1
$$

COZ069>075-221200-
...SAN LUIS VALLEY/SANGRE DE CRISTO MOUNTAINS...

CITY           SKY/WX    TMP DP  RH WIND       PRES   REMARKS
ALAMOSA        CLOUDY    31  29  92 N6        29.77S WCI  25
LA VETA PASS   CLOUDY    27  23  86 W5        29.77F WCI  21
SAGUACHE       LGT SNOW  32  32 100 NW6       29.76S VSB 1   WCI  26
$$

COZ035-036-038>040-221200-
...NORTHERN COLORADO FRONT RANGE...

CITY           SKY/WX    TMP DP  RH WIND       PRES   REMARKS
DENVER INTL AP PTCLDY    33  27  78 NW3       29.72S
DMNS CITY PARK   N/A     32  31  94 S3        29.72S
AURORA         MOCLDY    33  27  79 SW3       29.72F
FRONT RANGE AP PTCLDY    32  28  86 NW8       29.72F WCI  25
ERIE MUNI ARPT   N/A     29  28  98 CALM      29.73R
BOULDER MUN AP MOCLDY    34  32  93 SW3       29.72S
CENTENNIAL     MOCLDY    28  27  96 CALM      29.72S
BROOMFIELD     PTCLDY    30  30 100 CALM      29.72S
FORT COLLINS   PTCLDY    28  18  64 N10       29.74R WCI  19
LONGMONT       PTCLDY    33  29  86 W5        29.75R WCI  28
$$

COZ041-046-047-076>085-087-088-221200-
...PIKES PEAK/PALMER DIVIDE AND SOUTHERN FOOTHILLS...

CITY           SKY/WX    TMP DP  RH WIND       PRES   REMARKS
COLO. SPRINGS  CLOUDY    31  26  82 N13       29.73S WCI  21
A. F. ACADEMY  PTCLDY    27  26  95 N6        29.72S WCI  20
ELLICOTT       NOT AVBL
FALCON         PTCLDY    27  26  94 N8        29.73S WCI  19
FORT CARSON    PTCLDY    33  32  96 N10       29.72R WCI  24
LIMON          CLOUDY    31  27  85 W10       29.72R WCI  22
MONUMENT HILL  CLOUDY    27  25  93 NW7       29.71S WCI  19
TRINIDAD       LGT SNOW  32  31  96 N5        29.78S FOG     WCI  27
$$

COZ042>045-048>051-090-091-221200-
...NORTHEAST COLORADO...

CITY           SKY/WX    TMP DP  RH WIND       PRES   REMARKS
GREELEY ARPT   PTCLDY    30  19  64 N10       29.71R WCI  21
AKRON          CLOUDY    32  27  81 NW12      29.68R WCI  23
BURLINGTON     PTCLDY    34  29  82 NW14      29.65F WCI  25
WRAY           PTCLDY    37  30  75 W14G21    29.65R
STERLING       MOCLDY    34  30  86 NW9       29.67R WCI  26
HOLYOKE        PTCLDY    37  30  75 NW17G23   29.63R
FORT MORGAN    MOCLDY    33  24  70 NW23      29.70R WCI  21
$$

COZ086-089-092>099-221200-
...SOUTHEAST COLORADO...

CITY           SKY/WX    TMP DP  RH WIND       PRES   REMARKS
PUEBLO         CLOUDY    37  30  75 SW6       29.73S
LA JUNTA       CLOUDY    37  32  82 SW14      29.73R
LAMAR          CLOUDY    37  32  82 NW7       29.68F
SPRINGFIELD      N/A     36  32  85 NW23G30   29.68R
$$



USA.gov is the U.S. government's official web portal to all federal, state and local government web resources and services.